Location: Il Ritiro
(43.4167°N, 13.1333°E)
Time: 16:26:32
(UTC+00:00)

Cosmos 923 Rocket - Pass Details

Date: 05 July 2020
Orbit: 757 x 786 km, 74.0° (Epoch: 10 August)

Event Time Altitude Azimuth Distance (km) Brightness Sun altitude
Exits shadow 21:52:26 29° 216° (SW) 1,374 5.0 -21.4°
Maximum altitude 21:55:06 68° 292° (WNW) 828 4.2 -21.6°
Drops below altitude 10° 22:00:22 10° 16° (NNE) 2,331 7.3 -21.9°
Sets 22:02:48 0° 19° (NNE) 3,267 8.1 -22.0°
